{"data":{"norad_id":43030,"epoch":"2026-05-25T04:39:44.981568Z","epoch_age_seconds":65489,"freshness":"FRESH","line1":"1 43030U 17075C   26145.19427062  .00002515  00000+0  18758-3 0  9993","line2":"2 43030  34.9957  50.3215 0002828 228.6989 131.3475 15.02528354463966","mean_motion":15.02528354,"eccentricity":0.0002828,"inclination_deg":34.9957,"raan_deg":50.3215,"arg_perigee_deg":228.6989,"mean_anomaly_deg":131.3475,"bstar":0.00018758,"rev_number":46396,"period_min":95.838457634857,"perigee_km":557.14121641211,"apogee_km":561.06491939451,"semimajor_km":6937.2400679033,"source":"CELESTRAK","updated_at":"2026-05-25T13:37:55.757127Z"}}